TimeCST,TemperatureF,Dew PointF,Humidity,Sea Level PressureIn,VisibilityMPH,Wind Direction,Wind SpeedMPH,Gust SpeedMPH,PrecipitationIn,Events,Conditions,WindDirDegrees,DateUTC
12:15 AM,30.0,25.2,82,29.67,10.0,NE,4.6,-,N/A,,Overcast,50,2013-02-14 06:15:00
12:35 AM,29.1,25.0,85,29.67,10.0,Calm,Calm,-,N/A,,Overcast,0,2013-02-14 06:35:00
12:55 AM,28.2,24.8,87,29.67,10.0,Calm,Calm,-,N/A,,Overcast,0,2013-02-14 06:55:00
1:15 AM,28.8,25.5,88,29.67,10.0,Calm,Calm,-,N/A,,Overcast,0,2013-02-14 07:15:00
1:35 AM,26.1,23.7,91,29.68,10.0,Calm,Calm,-,N/A,,Overcast,0,2013-02-14 07:35:00
1:55 AM,28.0,24.4,86,29.68,10.0,Calm,Calm,-,N/A,,Overcast,0,2013-02-14 07:55:00
2:15 AM,28.2,24.6,86,29.69,10.0,Calm,Calm,-,N/A,,Overcast,0,2013-02-14 08:15:00
2:35 AM,27.7,23.9,86,29.69,10.0,NNW,5.8,-,N/A,,Overcast,340,2013-02-14 08:35:00
2:55 AM,26.4,22.6,86,29.69,10.0,NNW,5.8,-,N/A,,Overcast,340,2013-02-14 08:55:00
3:15 AM,26.6,22.5,84,29.69,10.0,NNW,6.9,-,N/A,,Overcast,330,2013-02-14 09:15:00
3:35 AM,27.1,22.6,83,29.70,10.0,NW,5.8,-,N/A,,Overcast,320,2013-02-14 09:35:00
3:55 AM,27.0,22.6,84,29.70,10.0,NW,4.6,-,N/A,,Overcast,310,2013-02-14 09:55:00
4:15 AM,27.5,22.8,83,29.70,10.0,Calm,Calm,-,N/A,,Overcast,0,2013-02-14 10:15:00
4:35 AM,28.4,23.0,80,29.71,10.0,NE,3.5,-,N/A,,Overcast,50,2013-02-14 10:35:00
4:55 AM,28.4,23.0,80,29.71,10.0,Calm,Calm,-,N/A,,Overcast,0,2013-02-14 10:55:00
5:15 AM,27.3,23.0,84,29.72,10.0,NW,3.5,-,N/A,,Overcast,310,2013-02-14 11:15:00
5:35 AM,27.1,22.5,83,29.73,10.0,NW,5.8,-,N/A,,Overcast,320,2013-02-14 11:35:00
5:55 AM,27.5,22.1,80,29.73,10.0,NNW,6.9,-,N/A,,Overcast,330,2013-02-14 11:55:00
6:15 AM,26.8,22.3,83,29.74,10.0,NNW,6.9,-,N/A,,Overcast,330,2013-02-14 12:15:00
6:35 AM,26.6,22.3,84,29.74,10.0,NNW,5.8,-,N/A,,Overcast,340,2013-02-14 12:35:00
6:55 AM,25.2,21.2,85,29.76,10.0,NNW,9.2,-,N/A,,Scattered Clouds,340,2013-02-14 12:55:00
7:15 AM,24.6,21.4,87,29.77,10.0,North,8.1,-,N/A,,Mostly Cloudy,350,2013-02-14 13:15:00
7:35 AM,24.8,21.6,87,29.78,10.0,NNW,9.2,-,N/A,,Overcast,340,2013-02-14 13:35:00
7:55 AM,25.0,20.3,82,29.79,10.0,North,8.1,-,N/A,,Overcast,350,2013-02-14 13:55:00
8:15 AM,25.7,20.3,80,29.80,10.0,North,6.9,-,N/A,,Overcast,360,2013-02-14 14:15:00
8:35 AM,26.6,20.8,79,29.81,10.0,North,8.1,-,N/A,,Overcast,350,2013-02-14 14:35:00
8:55 AM,26.6,20.3,77,29.81,10.0,North,9.2,17.3,N/A,,Overcast,360,2013-02-14 14:55:00
9:15 AM,26.6,20.1,77,29.82,10.0,North,10.4,-,N/A,,Overcast,360,2013-02-14 15:15:00
9:35 AM,26.2,19.0,74,29.83,10.0,North,11.5,-,N/A,,Overcast,350,2013-02-14 15:35:00
9:55 AM,24.3,16.5,72,29.84,10.0,NNW,17.3,24.2,N/A,,Mostly Cloudy,340,2013-02-14 15:55:00
10:15 AM,22.8,14.9,72,29.86,10.0,North,12.7,17.3,N/A,,Scattered Clouds,360,2013-02-14 16:15:00
10:35 AM,21.0,11.1,66,29.87,10.0,North,13.8,20.7,N/A,,Scattered Clouds,360,2013-02-14 16:35:00
10:55 AM,21.2,10.9,65,29.88,10.0,North,4.6,-,N/A,,Scattered Clouds,350,2013-02-14 16:55:00
11:15 AM,21.4,10.4,63,29.89,10.0,NNE,8.1,-,N/A,,Scattered Clouds,20,2013-02-14 17:15:00
11:35 AM,22.8,10.4,59,29.89,10.0,NNW,10.4,19.6,N/A,,Clear,340,2013-02-14 17:35:00
11:55 AM,22.6,9.3,57,29.90,10.0,North,5.8,-,N/A,,Clear,10,2013-02-14 17:55:00
12:15 PM,22.6,9.5,57,29.91,10.0,NNW,11.5,18.4,N/A,,Clear,340,2013-02-14 18:15:00
12:35 PM,23.2,8.6,54,29.91,10.0,NNW,10.4,18.4,N/A,,Clear,340,2013-02-14 18:35:00
12:55 PM,22.6,7.7,53,29.92,10.0,NNW,13.8,17.3,N/A,,Clear,340,2013-02-14 18:55:00
1:15 PM,21.9,4.8,48,29.93,10.0,North,13.8,20.7,N/A,,Clear,350,2013-02-14 19:15:00
1:35 PM,21.9,4.8,48,29.93,10.0,North,9.2,16.1,N/A,,Clear,360,2013-02-14 19:35:00
1:55 PM,22.5,5.4,48,29.94,10.0,NNW,11.5,16.1,N/A,,Clear,330,2013-02-14 19:55:00
2:15 PM,22.3,5.0,48,29.94,10.0,NNW,9.2,18.4,N/A,,Clear,340,2013-02-14 20:15:00
2:35 PM,22.5,5.0,47,29.96,10.0,North,9.2,21.9,N/A,,Clear,360,2013-02-14 20:35:00
2:55 PM,23.0,2.5,41,29.96,10.0,NNE,11.5,21.9,N/A,,Clear,20,2013-02-14 20:55:00
3:15 PM,23.7,2.8,41,29.97,10.0,North,4.6,-,N/A,,Clear,360,2013-02-14 21:15:00
3:35 PM,23.4,5.5,47,29.98,10.0,NNW,11.5,16.1,N/A,,Clear,340,2013-02-14 21:35:00
3:55 PM,23.4,3.9,43,29.99,10.0,North,13.8,18.4,N/A,,Clear,360,2013-02-14 21:55:00
4:15 PM,23.4,0.9,38,30.00,10.0,North,9.2,-,N/A,,Clear,360,2013-02-14 22:15:00
4:35 PM,23.0,0.5,38,30.01,10.0,North,9.2,16.1,N/A,,Clear,10,2013-02-14 22:35:00
4:55 PM,22.8,1.6,40,30.02,10.0,North,10.4,16.1,N/A,,Mostly Cloudy,350,2013-02-14 22:55:00
5:15 PM,21.4,3.2,46,30.04,10.0,NNW,11.5,-,N/A,,Scattered Clouds,330,2013-02-14 23:15:00
5:35 PM,21.2,2.5,44,30.04,10.0,NNW,10.4,17.3,N/A,,Mostly Cloudy,340,2013-02-14 23:35:00
5:55 PM,20.7,2.3,45,30.06,10.0,North,11.5,-,N/A,,Scattered Clouds,350,2013-02-14 23:55:00
6:15 PM,20.7,1.9,44,30.07,10.0,NNW,8.1,-,N/A,,Clear,340,2013-02-15 00:15:00
6:35 PM,20.3,1.8,45,30.07,10.0,NNW,8.1,-,N/A,,Scattered Clouds,340,2013-02-15 00:35:00
6:55 PM,19.8,1.9,46,30.07,10.0,NNW,10.4,17.3,N/A,,Mostly Cloudy,340,2013-02-15 00:55:00
7:15 PM,20.1,1.2,44,30.08,10.0,NNW,13.8,21.9,N/A,,Scattered Clouds,340,2013-02-15 01:15:00
7:35 PM,19.4,1.8,46,30.08,10.0,North,12.7,20.7,N/A,,Mostly Cloudy,350,2013-02-15 01:35:00
7:55 PM,19.4,2.1,47,30.09,10.0,North,9.2,-,N/A,,Overcast,350,2013-02-15 01:55:00
8:15 PM,19.4,1.4,46,30.10,10.0,NNW,5.8,-,N/A,,Overcast,340,2013-02-15 02:15:00
8:35 PM,18.0,1.0,48,30.11,10.0,NNW,4.6,-,N/A,,Scattered Clouds,340,2013-02-15 02:35:00
8:55 PM,18.3,0.9,47,30.11,10.0,North,4.6,-,N/A,,Clear,350,2013-02-15 02:55:00
9:15 PM,16.9,0.3,48,30.11,10.0,NNW,4.6,-,N/A,,Clear,340,2013-02-15 03:15:00
9:35 PM,16.7,0.3,49,30.11,10.0,NNW,4.6,-,N/A,,Scattered Clouds,330,2013-02-15 03:35:00
9:55 PM,16.2,1.8,53,30.12,10.0,NNW,4.6,-,N/A,,Overcast,340,2013-02-15 03:55:00
10:15 PM,15.6,1.8,54,30.12,10.0,WNW,4.6,-,N/A,,Overcast,290,2013-02-15 04:15:00
10:35 PM,15.4,2.5,57,30.12,10.0,WNW,5.8,-,N/A,,Overcast,300,2013-02-15 04:35:00
10:55 PM,16.2,3.0,56,30.13,10.0,WNW,5.8,-,N/A,,Overcast,290,2013-02-15 04:55:00
11:15 PM,15.8,2.7,56,30.13,10.0,WNW,5.8,-,N/A,,Overcast,300,2013-02-15 05:15:00
11:35 PM,14.9,2.8,59,30.13,10.0,WNW,6.9,-,N/A,,Overcast,300,2013-02-15 05:35:00
11:55 PM,14.7,2.1,57,30.13,10.0,NW,8.1,-,N/A,,Overcast,320,2013-02-15 05:55:00